COSMOS 1795

导读

**COSMOS 1795卫星摘要** COSMOS 1795是前苏联(独立后归属CIS)宇宙系列卫星,1986年11月21日发射入轨。作为冷战时期苏联航天项目产物,延续了“宇宙”系列多用途军用航天任务设计,服务于战略侦察、空间技术验证类需求,是苏联太空军事化布局的典型载体,目前已在轨退役。

基本信息
目录编号:
17139
目录名称:
COSMOS 1795
国际标识:
1986-092B
轨道中心:
EARTH
卫星名称:
COSMOS 1795
卫星全名:
--
卫星状态:
在轨 (已飞行14451 天)
发射日期:
1986-11-21 UTC
国别 :
俄罗斯(独联体) (CIS)
星等 :
--
轨道信息
数据来源 国际轨道数据 AOE轨道数据
星历时间 2026-06-15T06:33:20+0800
8小时前
查看轨道信息
2026-06-15T05:00:00+0800
10小时前
查看轨道信息
半长轴 7851.781km 7851.782km
偏心率 0.0010216 0.0010553
轨道倾角 74.015° 74.015°
近地点辐角 205.523° 205.184°
升交点赤经 37.725° 37.811°
平近点角 166.114° 235.414°
近地点 1465.622km 1465.359km
远地点 1481.666km 1481.931km
周期 115.402分钟 115.402分钟
每日圈数 12.478159 12.478158
详细信息
使用方式:
暂无
2D轨道图
3D轨道图
轨道高度分析图
轨道倾角分析图
轨道综合分析图
查看轨道综合分析图